Probability
0 0 0 0 0 0 0 0 0 0 0 0 0 0 0 0 0 0 0 0 0 0 0 0 0 0 0 0 0 0 0 0 0 0 0 0 0 0 0 0 0 0 0
0 0 0 0 0 0 0 0 0 0 0 0 0 0 0 0 0 0 0 0 0 0 0 0 0 0 0 0 0 0 0 0 0 0 0 0 0 0 0 0 0 0 0
0 0 0 0 0 0 0 0 0 0 0 0 0 0 0 0 0 0 0 0 0 0 0 0 0 0 0 0 0 0 0 0 0 0 0 0 0 0 0 0 0 0 0
0 0 0 0 0 0 0 0 0 0 0 0 0 0 0 0 0 0 0 0 0 0 0 0 0 0 0 0 0 0 0 0 0 0 0 0 0 0 0 0 0 0 0
0 0 0 0 0 0 0 0 0 0 0 0 0 0 0 0 0 0 0 0 0 0 0 0 0 0 0 0 0 0 0 0 0 0 0 0 0 0 0 0 0 0 0
0 0 0 0 0 0 0 0 0 0 0 0 0 0 0 0 0 0 0 0 0 0 0 0 0 0 0 0 0 0 0 0 0 0 0 0 0 0 0 0 0 0 0
0 0 0 0 0 0 0 0 0 0 0 0 0 0 0 0 0 0 0 0 0 0 0 0 0 0 0 0 0 0 0 0 0 0 0 0 0 0 0 0 0 0 0
0 0 0 0 0 0 0 0 0 0 0 0 0 0 0 0 0 0 0 0 0 0 0 0 0 0 0 0 0 0 0 0 0 0 0 0 0 0 0 0 0 0 0
0 0 0 0 0 0 0 0 0 0 0 0 0 0 0 0 0 0 0 0 0 0 0 0 0 0 0 0 0 0 0 0 0 0 0 0 0 0 0 0 0 0 0
0 0 0 0 0 0 0 0 0 0 0 0 0 0 0 0 0 0 0 0 0 0 0 0 0 0 0 0 0 0 0 0 0 0 0 0 0 0 0 0 0 0 0
0 0 0 0 0 0 0 0 0 0 0 0 0 0 0 0 0 0 0 0 0 0 0 0 0 0 0 0 0 0 0 0 0 0 0 0 0 0 0 0 0 0 0
0 0 0 0 0 0 0 0 0 0 0 0 0 0 0 0 0 0 0 0 0 0 0 0 0 0 0 0 0 0 0 0 0 0 0 0 0 0 0 0 0 0 0
0 0 0 0 0 0 0 0 0 0 0 0 0 0 0 0 0 0 0 0 0 0 0 0 0 0 0 0 0 0 0 0 0 0 0 0 0 0 0 0 0 0 0
0 0 0 0 0 0 0 0 0 0 0 0 0 0 0 0 0 0 0 0 0 0 0 0 0 0 0 0 0 0 0 0 0 0 0 0 0 0 0 0 0 0 0
0 0 0 0 0 0 0 0 0 0 0 0 0 0 0 0 0 0 0 0 0 0 0 0 0 0 0 0 0 0 0 0 0 0 0 0 0 0 0 0 0 0 0
0 0 0 0 0 0 0 0 0 0 0 0 0 0 0 0 0 0 0 0 0 0 0 0 0 0 0 0 0 0 0 0 0 0 0 0 0 0 0 0 0 0 0
0 0 0 0 0 0 0 0 0 0 0 0 0 0 0 0 0 0 0 0 0 0 0 0 0 0 0 0 0 0 0 0 0 0 0 0 0 0 0 0 0 0 0
0 0 0 0 0 0 0 0 0 0 0 0 0 0 0 0 0 0 0 0 0 0 0 0 0 0 0 0 0 0 0 0 0 0 0 0 0 0 0 0 0 0 0
0 0 0 0 0 0 0 0 0 0 0 0 0 0 0 0 0 0 0 0 0 0 0 0 0 0 0 0 0 0 0 0 0 0 0 0 0 0 0 0 0 0 0
0 0 0 0 0 0 0 0 0 0 0 0 0 0 0 0 0 0 0 0 0 0 0 0 0 0 0 0 0 0 0 0 0 0 0 0 0 0 0 0 0 0 0
0 0 0 0 0 0 0 0 0 0 0 0 0 0 0 0 0 0 0 0 0 0 0 0 0 0 0 0 0 0 0 0 0 0 0 0 0 0 0 0 0 0 0
0 0 0 0 0 0 0 0 0 0 0 0 0 0 0 0 0 0 0 0 0 0 0 0 0 0 0 0 0 0 0 0 0 0 0 0 0 0 0 0 0 0 0
0 0 0 0 0 0 0 0 0 0 0 0 0 0 0 0 0 0 0 0 0 0 0 0 0 0 0 0 0 0 0 0 0 0 0 0 0 0 0 0 0 0 0
0 0 0 0 0 0 0 0 0 0 0 0 0 0 0 0 0 0 0 0 0 0 0 0 0 0 0 0 0 0 0 0 0 0 0 0 0 0 0 0 0 0 0
0 0 0 0 0 0 0 0 0 0 0 0 0 0 0 0 0 0 0 0 0 0 0 0 0 0 0 0 0 0 0 0 0 0 0 0 0 0 0 0 0 0 0
0 0 0 0 0 0 0 0 0 0 0 0 0 0 0 0 0 0 0 0 0 0 0 0 0 0 0 0 0 0 0 0 0 0 0 0 0 0 0 0 0 0 0
Wind_Speed
3 2 2 2 2 3 3 4 4 3 4 4 3 3 3 3 3 3 3 4 4 3 3 3 3 2 2 2 2 2 2 3 3 2 1 1 2 2 2 1 2 2 3
3 2 2 2 2 3 3 3 3 4 3 4 4 4 4 3 3 4 4 5 5 5 4 3 3 2 3 3 2 3 2 2 3 3 1 1 2 2 2 2 2 2 2
3 3 2 2 3 3 4 4 4 3 3 3 3 4 4 4 4 4 4 5 5 5 5 5 4 4 4 3 3 3 2 2 2 2 2 1 1 1 1 2 2 2 3
2 2 3 3 3 3 3 4 4 4 4 3 3 4 4 4 4 4 4 4 4 4 4 4 5 5 5 5 4 4 3 3 2 2 2 2 2 1 1 2 2 2 3
2 2 2 2 2 2 3 3 4 4 4 4 3 3 3 3 4 5 4 5 4 4 4 4 5 6 7 6 4 4 5 3 3 2 2 2 2 2 2 2 2 2 3
2 1 1 1 1 1 1 2 3 3 3 3 3 4 4 4 6 8 6 5 5 5 5 4 4 5 7 8 8 8 8 6 5 4 3 4 4 4 2 2 2 1 3
1 1 1 1 1 1 1 1 2 2 3 3 3 4 5 5 7 8 8 5 5 5 5 4 3 4 5 4 6 7 8 10 9 6 6 6 5 5 4 3 3 3 4
1 1 1 1 1 1 1 1 1 1 2 2 3 3 3 4 6 7 8 5 4 4 5 5 5 4 5 5 5 4 4 5 6 5 6 6 5 5 5 5 4 3 3
1 1 1 1 1 1 1 1 1 1 1 2 2 2 3 3 5 6 6 3 3 4 4 5 5 5 7 8 5 5 4 4 5 7 7 6 7 6 4 2 1 1 3
1 1 1 1 1 1 2 1 1 1 1 1 1 2 2 3 4 5 5 2 3 3 2 3 6 6 7 8 5 5 5 5 3 3 4 4 4 5 6 4 4 3 2
1 1 1 0 1 1 1 1 1 1 1 1 1 1 2 3 4 5 5 2 3 3 2 2 3 7 8 8 7 5 7 4 3 3 3 2 2 2 3 3 3 3 3
1 1 1 1 1 1 0 1 1 0 1 1 1 2 2 2 3 4 5 5 4 3 3 3 3 6 7 8 6 6 7 4 2 2 2 3 3 3 3 3 3 3 4
1 1 1 2 1 1 1 1 1 1 0 1 1 2 2 2 2 5 5 5 6 4 3 5 5 6 6 5 6 6 4 2 2 3 3 3 3 3 2 1 1 2 2
1 1 1 2 2 2 1 1 1 1 1 1 1 2 2 2 2 2 2 3 4 4 3 4 5 4 3 3 3 3 2 3 3 3 3 2 1 2 2 2 1 1 2
1 1 1 1 1 2 2 1 1 2 2 2 2 2 2 3 4 5 3 3 2 3 2 1 1 1 1 2 2 2 2 2 3 2 2 2 2 2 2 2 1 1 2
1 2 1 1 1 1 2 3 4 3 4 5 5 4 4 5 6 6 6 6 6 5 2 2 2 2 3 3 3 2 2 3 3 3 3 3 2 3 2 2 2 2 3
1 1 1 1 1 1 2 2 3 4 5 5 5 5 5 6 6 6 6 5 5 4 2 2 3 3 3 3 3 3 3 3 3 3 3 3 3 3 3 3 2 2 3
1 1 1 1 1 1 2 2 2 3 4 3 4 6 6 7 6 5 5 3 2 2 2 2 3 3 3 3 3 3 3 3 3 3 3 4 3 3 3 3 3 3 3
1 1 1 1 1 2 2 2 2 3 3 3 3 4 6 6 5 4 3 1 2 2 2 3 3 3 3 3 3 3 4 3 4 3 4 4 4 3 3 4 4 5 4
1 3 2 2 2 2 2 2 2 3 3 3 3 3 3 3 2 2 2 1 2 2 3 3 3 3 3 3 3 3 3 4 4 4 4 4 4 4 4 4 4 4 4
1 2 4 2 2 2 2 3 3 3 3 4 4 4 6 3 3 3 2 2 2 3 3 3 3 3 3 3 3 4 4 4 4 4 4 4 4 3 3 3 4 3 3
1 2 2 2 2 2 3 3 3 3 4 4 4 4 7 3 3 3 3 3 3 3 3 2 2 2 3 3 3 3 4 4 4 4 4 4 3 3 3 3 3 3 3
1 2 2 3 3 4 4 3 3 4 4 4 4 4 3 3 3 3 3 3 3 2 2 2 2 2 2 3 3 3 4 4 4 4 4 4 4 4 4 4 4 4 4
2 2 2 3 3 3 3 4 4 4 4 4 4 4 4 4 4 4 4 3 2 2 2 2 2 3 4 3 2 2 3 3 3 4 5 5 4 4 4 4 4 4 4
2 2 2 3 3 3 4 4 4 4 4 4 4 4 4 4 4 4 3 3 3 3 3 3 2 3 4 4 3 3 4 5 5 3 4 4 4 4 4 4 3 3 3
2 2 3 3 3 3 4 4 4 4 4 4 4 4 4 4 4 4 3 3 2 2 3 2 3 3 4 3 4 4 5 6 6 5 3 3 4 4 4 3 4 4 3
Wind_Direction
181 181 182 190 184 182 190 193 192 194 182 170 171 175 182 188 186 182 186 179 181 188 184 178 191 176 166 164 154 149 148 147 188 239 245 218 196 216 251 256 256 261 274
185 176 189 196 193 195 200 195 188 189 184 176 174 180 190 195 192 189 191 191 191 195 196 186 197 181 183 178 169 171 172 166 172 212 241 232 230 221 233 250 268 269 269
184 183 196 204 205 208 204 194 185 187 183 179 180 190 195 196 194 198 196 197 199 199 195 194 198 186 196 192 186 186 183 176 166 184 224 232 246 238 253 273 275 279 280
177 185 201 212 215 216 206 193 188 185 186 191 194 200 201 201 202 201 196 197 202 204 202 202 201 199 201 193 192 193 181 178 172 181 214 224 236 245 218 252 281 276 284
168 196 218 238 225 201 200 197 191 186 192 191 193 204 203 203 208 205 200 196 197 201 206 210 212 211 207 199 196 191 183 185 183 193 216 220 227 217 226 225 255 289 284
180 227 260 280 284 255 219 194 185 189 191 190 201 208 210 220 219 214 208 198 197 198 205 213 215 215 217 219 218 208 194 191 197 198 211 220 232 223 217 217 234 285 289
184 223 242 254 278 279 267 177 191 198 193 204 213 213 218 225 221 217 214 203 198 201 203 206 219 223 216 211 225 224 221 222 212 202 211 221 222 213 202 219 224 227 244
177 219 237 245 267 280 263 220 229 220 208 217 225 224 225 234 227 222 220 212 204 207 207 206 210 218 214 205 203 210 220 228 228 219 217 224 222 211 203 211 217 231 261
197 229 245 228 234 250 254 251 258 242 245 237 231 221 230 251 240 233 225 204 208 217 215 210 209 214 224 217 203 210 227 241 244 232 230 236 239 234 213 169 184 225 271
249 260 271 247 226 240 247 253 261 234 244 246 253 240 234 248 251 244 230 209 210 220 220 222 226 225 228 222 206 205 223 234 224 229 234 240 234 228 218 199 192 210 244
312 359 357 296 251 250 260 271 252 243 224 228 254 270 255 254 264 256 242 219 209 212 221 229 237 239 236 231 220 214 229 227 207 205 208 215 218 216 215 210 199 199 217
51 38 2 344 334 350 340 323 307 226 243 271 286 297 286 272 265 263 252 241 230 214 227 230 234 239 238 235 228 229 240 234 187 189 205 216 218 223 223 218 219 223 227
61 40 8 5 2 1 356 343 344 328 273 278 279 286 292 280 266 261 259 254 248 232 229 232 239 240 239 236 232 231 230 205 188 205 220 226 219 212 203 214 240 244 258
58 24 23 25 10 8 0 352 344 314 293 275 267 272 283 288 277 267 266 267 265 254 240 238 245 243 235 235 236 231 211 201 201 214 218 214 191 187 199 204 225 246 274
54 36 23 19 11 4 357 338 314 284 262 272 273 264 273 281 272 262 255 246 235 234 224 210 211 219 218 218 211 209 201 201 212 206 201 202 206 210 221 206 208 227 252
43 23 8 360 0 356 351 351 348 328 317 308 297 285 280 277 286 280 271 264 254 238 222 213 218 220 224 221 216 215 212 214 211 206 206 207 214 218 225 220 226 237 256
34 344 342 345 338 329 325 326 330 339 337 326 316 306 297 296 291 281 274 262 251 236 226 222 223 223 224 217 214 216 219 217 206 204 208 210 214 218 220 226 232 247 258
348 336 336 311 302 300 299 301 302 306 317 321 323 318 315 312 306 295 282 274 255 236 223 228 231 227 223 219 217 219 221 212 208 211 213 212 211 213 221 227 230 239 254
347 334 324 307 300 293 293 296 296 296 297 304 311 317 319 319 318 306 294 265 242 244 236 234 233 229 227 224 221 217 214 215 215 214 217 217 213 213 224 228 234 248 255
349 337 335 323 316 314 309 304 302 301 300 301 301 301 309 315 310 308 296 266 255 257 252 247 241 233 228 225 221 217 214 213 212 217 219 217 216 217 223 228 233 241 247
339 332 332 328 316 309 308 303 298 294 292 293 292 294 299 293 284 282 279 268 260 257 254 249 243 236 231 225 222 220 216 216 213 214 217 218 215 217 220 225 230 236 248
331 322 320 316 313 311 308 300 295 291 289 290 293 300 304 298 285 281 278 275 270 263 252 244 242 237 230 225 222 222 220 218 214 210 213 214 215 218 218 221 225 231 238
320 320 321 317 313 311 314 305 299 297 294 292 294 297 298 290 283 279 277 276 272 268 264 248 247 251 245 235 225 220 222 222 216 209 209 213 215 216 215 220 224 229 236
314 308 304 305 308 306 303 301 299 296 293 292 294 294 291 289 286 283 280 277 272 269 267 258 253 254 254 251 243 233 228 222 209 207 206 210 213 214 213 217 223 227 231
308 306 303 299 300 303 302 300 299 298 297 295 294 294 293 290 287 285 280 273 267 263 264 263 257 254 254 252 248 242 239 238 234 219 206 209 211 210 211 216 221 224 228
301 296 292 290 290 294 296 298 299 298 295 294 294 292 289 286 284 281 279 274 271 269 269 266 263 263 262 256 252 250 249 248 244 235 217 203 203 205 204 211 215 219 221